Find Starlink 33830

NORAD ID: 63587 Int'l Des: 2025-076 Owner: SPXS Country: US Constellation: starlink operational
LEOCIRCULAR

現在のビュー

3D地球を読み込み中...

Starlink 33830について

説明を読み込み中...

次回通過

Passes for default location (London). Set your location on the main map for personalized predictions.

高度履歴

Loading altitude history...

軌道要素

1 63587U 25076U 26150.57436033 .00017621 00000-0 64806-3 0 9998
2 63587 43.0040 219.2473 0001790 262.3848 97.6801 15.27592851 64354
Epoch: May 30, 2026 • Age: 15 hours

現在のステータス

高度 486.1 km
速度 7.63 km/s
衛星直下点 38.04°N, 24.39°E
打ち上げ日 Apr 14, 2025
運用期間 1.1 years
タイプ internet

技術仕様

分類 Payload
質量 575.00 kg
乾燥質量 530.00 kg
総質量 575.00 kg
長さ 0.30 m
直径 4.10 m
スパン 29.00 m
形状 Box + pan
製造者 SPXS
バスタイプ Starlink V2MO
フェーズステータス In Orbit
所有者/国 SPXS/US

Most Searched